Frederick, OK

9:49 AM CDT on September 19, 2017 (GMT -0500)
Frederick Municipal

Weather History for KFDR - May, 2013

Change the Weather History Date:

Thursday, May 16, 2013

  Actual Average (KLTS) Record (KLTS)
Temperature  
Mean Temperature 70 °F -  
Max Temperature 81 °F 82 °F 96 °F (2000)
Min Temperature 60 °F 58 °F 46 °F (2011)
Cooling Degree Days 5    
Growing Degree Days 20 (Base 50)    
Moisture  
Dew Point 60 °F    
Average Humidity 77    
Maximum Humidity 94    
Minimum Humidity 52    
Precipitation  
Precipitation 0.00 in - - ()
Sea Level Pressure  
Sea Level Pressure 29.74 in    
Wind  
Wind Speed 10 mph (ENE)    
Max Wind Speed 15 mph    
Max Gust Speed 21 mph    
Visibility 10 miles    
Events Thunderstorm    
Averages and records for this station are not official NWS values.
T = Trace of Precipitation, MM = Missing Value Source: NWS Daily Summary

Daily Weather History Graph

Daily Weather History Graph

Search for Another Location

Airport or City:

Trip Planner

Search our weather history database for the weather conditions in past years. The results will help you decide how hot, cold, wet, or windy it might be!

Date:

Astronomy

May. 16, 2013 Rise Set
Actual Time 6:32 AM CDT 8:32 PM CDT
Civil Twilight 6:04 AM CDT 9:00 PM CDT
Nautical Twilight 5:31 AM CDT 9:34 PM CDT
Astronomical Twilight 4:54 AM CDT 10:10 PM CDT
Moon 12:02 PM CDT (5/16) 12:57 AM CDT (5/16)
Length of Visible Light 14h 55m
Length of Day
13h 59m
Waxing Crescent, 36% of the Moon is Illuminated
May 16
Waxing Crescent
May 17
First Quarter
May 24
Full
May 31
Last Quarter
Jun 8
New

Hourly Weather History & Observations

Time (CDT) Temp. Heat Index Dew Point Humidity Pressure Visibility Wind Dir Wind Speed Gust Speed Precip Events Conditions
12:53 AM 64.0 °F - 60.1 °F 87% 29.72 in 10.0 mi East 15.0 mph - N/A   Scattered Clouds
1:53 AM 63.0 °F - 59.0 °F 87% 29.72 in 10.0 mi East 10.4 mph - N/A   Scattered Clouds
2:43 AM 62.6 °F - 59.0 °F 88% 29.74 in 10.0 mi ENE 6.9 mph - N/A Thunderstorm Clear
2:53 AM 61.0 °F - 59.0 °F 93% 29.70 in 10.0 mi ENE 6.9 mph - N/A   Clear
3:53 AM 61.0 °F - 59.0 °F 93% 29.70 in 10.0 mi East 6.9 mph - N/A   Partly Cloudy
4:07 AM 60.8 °F - 59.0 °F 94% 29.74 in 10.0 mi ENE 6.9 mph - N/A   Mostly Cloudy
4:29 AM 62.6 °F - 59.0 °F 88% 29.74 in 10.0 mi ENE 11.5 mph - N/A   Overcast
4:53 AM 62.1 °F - 59.0 °F 90% 29.70 in 10.0 mi East 9.2 mph - N/A   Overcast
5:36 AM 62.6 °F - 59.0 °F 88% 29.75 in 10.0 mi ESE 8.1 mph - N/A   Overcast
5:53 AM 63.0 °F - 59.0 °F 87% 29.71 in 10.0 mi ESE 6.9 mph - N/A   Overcast
6:53 AM 63.0 °F - 59.0 °F 87% 29.73 in 10.0 mi SE 8.1 mph - N/A   Overcast
7:53 AM 64.0 °F - 60.1 °F 87% 29.75 in 10.0 mi SE 4.6 mph - N/A   Overcast
8:53 AM 64.0 °F - 59.0 °F 84% 29.77 in 10.0 mi ENE 4.6 mph - N/A   Overcast
9:29 AM 64.4 °F - 59.0 °F 83% 29.80 in 10.0 mi Calm Calm - N/A   Overcast
9:53 AM 66.0 °F - 59.0 °F 78% 29.76 in 10.0 mi NW 3.5 mph - N/A   Overcast
10:53 AM 70.0 °F - 60.1 °F 71% 29.76 in 10.0 mi North 9.2 mph - N/A   Overcast
11:01 AM 71.6 °F - 60.8 °F 69% 29.80 in 10.0 mi NNE 9.2 mph - N/A   Overcast
11:53 AM 71.1 °F - 60.1 °F 68% 29.77 in 10.0 mi NNE 13.8 mph - N/A   Overcast
12:45 PM 75.2 °F - 60.8 °F 61% 29.80 in 10.0 mi NE 11.5 mph - N/A   Scattered Clouds
12:53 PM 77.0 °F - 61.0 °F 58% 29.75 in 10.0 mi ENE 13.8 mph 20.7 mph N/A   Partly Cloudy
1:53 PM 77.0 °F - 61.0 °F 58% 29.75 in 10.0 mi NE 11.5 mph 19.6 mph N/A   Partly Cloudy
2:53 PM 78.1 °F - 60.1 °F 54% 29.75 in 10.0 mi ENE 9.2 mph 18.4 mph N/A   Partly Cloudy
3:53 PM 80.1 °F 81.1 °F 61.0 °F 52% 29.73 in 10.0 mi ENE 11.5 mph - N/A   Clear
5:53 PM 79.0 °F - 60.1 °F 52% 29.70 in 10.0 mi East 10.4 mph 19.6 mph N/A   Clear
6:53 PM 77.0 °F - 60.1 °F 56% 29.71 in 10.0 mi East 9.2 mph - N/A   Clear
7:53 PM 73.9 °F - 60.1 °F 62% 29.72 in 10.0 mi East 11.5 mph - N/A   Clear
8:53 PM 69.1 °F - 60.1 °F 73% 29.72 in 10.0 mi ENE 12.7 mph - N/A   Clear
9:53 PM 66.9 °F - 60.1 °F 79% 29.74 in 10.0 mi East 10.4 mph - N/A   Clear
10:53 PM 66.0 °F - 61.0 °F 84% 29.75 in 10.0 mi East 13.8 mph - N/A   Clear
11:49 PM 66.2 °F - 62.6 °F 88% 29.79 in 10.0 mi East 10.4 mph - N/A   Mostly Cloudy
11:53 PM 66.0 °F - 62.1 °F 87% 29.75 in 10.0 mi East 11.5 mph - N/A   Mostly Cloudy